Theta_e
316 312 309 308 307 307 308 306 303 299 300 299 297 297 301 300 302 301 300 305 306 306 306 306 306 306 307 308 308 308 308 308 307 308 309 309 309 309
310 308 307 306 305 305 305 305 306 304 301 298 297 297 298 300 301 301 300 303 304 304 303 302 304 305 305 305 305 305 305 305 306 307 307 307 308 308
307 306 305 304 304 304 304 304 304 304 302 295 296 296 297 297 299 299 300 297 300 303 302 301 302 302 302 303 303 304 304 304 304 305 306 306 306 307
306 305 303 305 302 302 302 300 300 298 298 293 294 294 296 297 297 296 297 298 295 299 301 301 301 301 302 302 302 302 302 302 303 303 304 305 305 306
305 303 302 302 299 297 297 295 295 297 296 294 293 296 297 297 295 295 294 293 296 301 302 301 300 301 302 302 302 301 301 300 301 301 302 303 304 304
302 301 300 298 296 296 296 296 297 296 296 295 294 295 295 295 293 291 291 293 293 298 300 300 301 302 302 301 301 300 300 300 300 301 301 301 302 303
297 297 298 299 302 299 297 297 296 295 295 294 292 291 290 290 289 290 290 290 291 292 292 292 291 292 293 297 297 298 298 299 300 300 300 299 300 300
296 297 300 303 302 304 303 303 299 293 291 290 289 288 288 288 288 288 287 287 286 291 288 288 290 290 291 292 299 298 298 299 299 299 298 298 298 299
298 298 299 302 300 298 302 301 299 299 296 290 288 288 287 288 288 287 287 286 286 289 288 286 289 288 290 293 297 297 297 297 297 297 297 297 297 298
295 295 295 294 296 297 296 293 292 293 294 294 290 289 289 290 291 292 289 288 289 289 288 284 287 286 288 289 296 296 297 297 297 297 297 297 297 297
292 293 293 291 297 298 292 291 290 293 299 299 296 295 295 294 293 288 286 288 285 286 287 285 285 284 286 286 289 295 295 296 297 297 297 297 296 296
290 291 298 295 297 297 292 291 289 292 293 292 292 293 293 291 293 288 287 285 287 283 289 284 284 287 281 285 286 287 288 293 294 295 296 296 295 289
290 290 292 296 298 297 297 294 294 293 293 291 290 290 291 291 291 292 291 290 287 286 289 290 287 286 286 285 287 287 286 287 287 289 293 294 295 294
290 291 292 297 296 295 295 297 296 294 291 289 288 288 288 289 290 290 291 291 291 290 291 290 288 287 285 285 284 285 286 290 289 286 289 292 294 294
292 294 295 294 293 292 293 293 294 290 289 287 287 287 288 289 290 290 291 291 291 291 293 290 289 288 287 285 285 284 287 286 287 289 290 290 290 290
294 291 291 291 291 291 291 292 291 289 289 288 288 289 290 290 289 289 289 289 288 288 291 291 290 289 286 285 285 284 286 286 287 289 290 290 290 291
291 288 287 288 288 288 289 289 290 290 289 289 288 288 289 289 289 289 288 287 286 286 286 288 290 290 289 286 284 285 285 286 289 290 289 287 289 289
289 286 285 287 287 286 286 287 288 289 289 289 289 289 288 288 288 288 288 287 286 286 286 287 288 286 286 287 292 287 285 285 286 286 286 284 285 287
285 285 285 286 287 287 287 287 287 288 288 288 288 287 288 288 288 287 287 287 286 286 286 287 287 286 281 280 285 293 285 286 285 285 285 286 287 290
287 285 285 286 286 287 288 288 288 288 288 288 288 288 288 287 285 286 286 286 285 286 286 287 286 286 283 284 285 286 291 287 287 286 285 287 289 294
287 287 287 287 286 286 287 287 287 286 287 287 287 287 286 287 286 286 286 287 287 286 285 285 287 292 289 289 285 284 286 291 291 288 287 287 287 289
288 287 287 287 286 286 287 287 287 287 287 287 287 286 287 287 286 286 286 286 284 285 285 287 288 288 287 285 283 284 285 288 291 293 294 293 289 286
287 287 285 285 285 286 286 286 287 286 286 286 286 286 287 286 287 287 286 285 286 285 285 285 286 287 286 286 286 285 286 286 287 287 289 294 295 296
Wind_Speed
7 10 7 6 6 5 6 4 5 2 2 2 2 2 1 1 1 5 4 3 4 5 5 5 6 7 9 9 10 11 11 12 12 12 14 14 14 14
7 10 8 5 6 5 5 4 4 3 1 1 2 2 2 1 1 1 3 1 3 3 2 4 7 9 9 10 9 9 10 10 11 12 12 12 12 13
9 9 7 5 5 4 4 3 3 2 3 0 1 2 2 3 2 2 2 1 1 4 4 5 9 9 8 7 8 8 9 10 11 13 13 13 13 13
7 7 6 4 4 4 4 4 2 2 2 2 1 2 2 1 1 1 2 3 2 6 8 8 6 6 6 6 7 8 9 10 12 12 12 13 14 15
6 6 5 5 4 3 4 4 3 2 2 3 2 1 1 1 2 2 2 3 3 7 8 3 4 6 8 8 8 9 7 8 11 13 12 12 13 13
5 5 5 5 6 6 5 5 3 4 3 3 2 1 1 1 1 1 2 2 3 3 3 3 4 8 9 9 7 8 7 10 11 10 8 13 14 14
6 6 5 7 11 8 5 4 5 3 2 2 1 1 1 1 1 1 2 3 5 2 2 3 2 2 3 4 2 5 5 10 11 8 12 13 14 15
6 5 4 9 9 10 9 8 6 2 1 2 1 2 2 3 2 2 2 2 3 2 2 4 2 3 2 3 8 6 8 9 11 11 12 15 16 16
6 5 5 5 7 6 8 8 7 7 5 3 3 3 4 2 1 3 3 2 3 5 2 2 3 3 2 4 10 4 7 11 12 11 13 15 15 16
6 5 6 5 5 4 4 4 4 5 5 5 6 3 3 4 4 3 3 4 5 3 1 1 3 3 4 5 9 7 12 12 14 13 15 15 14 15
7 7 6 6 5 5 5 2 5 5 7 10 7 5 4 4 3 2 3 2 3 2 4 2 4 4 3 2 5 14 19 19 20 18 18 16 12 14
6 6 9 6 5 3 2 3 4 4 4 4 1 2 3 4 1 3 1 2 2 3 1 3 4 5 4 3 4 5 6 13 19 18 18 17 9 2
4 4 3 5 4 5 6 4 4 5 5 3 4 2 3 2 3 1 2 2 2 3 4 2 1 2 2 7 4 4 3 5 5 7 14 12 16 14
5 5 4 6 6 6 6 4 3 4 2 2 1 2 2 2 3 3 4 3 3 3 4 3 2 2 4 4 5 3 5 6 5 4 5 9 11 13
5 8 7 5 3 4 2 3 3 2 3 1 1 1 1 2 3 3 3 5 5 4 3 3 3 3 3 4 5 5 9 4 5 4 6 5 5 5
7 5 4 3 2 2 2 2 2 2 1 1 1 1 2 2 3 2 1 2 2 2 4 5 5 4 4 5 5 7 7 6 6 6 6 5 3 4
5 3 2 2 1 1 1 2 1 1 2 1 2 2 2 2 3 1 1 2 2 3 3 4 6 5 6 7 6 6 7 7 6 6 4 6 6 5
3 2 2 1 1 1 2 3 3 3 2 2 2 2 3 2 3 2 2 2 3 3 3 4 4 4 4 4 11 5 3 3 6 4 5 4 6 6
2 1 2 0 0 2 3 2 2 3 3 3 3 3 3 3 4 3 4 2 3 4 4 3 4 4 6 8 4 2 4 8 5 6 4 5 8 9
2 2 1 2 2 2 1 1 1 2 2 3 3 1 1 1 2 3 3 3 4 5 5 4 4 4 5 6 7 8 12 8 6 7 6 6 8 16
4 3 3 3 2 2 2 2 2 2 2 1 2 2 3 2 2 3 4 8 8 3 5 5 4 15 5 5 6 6 7 11 10 7 7 6 8 3
4 3 3 3 2 2 2 2 2 2 2 2 2 2 3 3 3 3 3 2 3 4 6 5 6 5 5 6 8 10 7 7 8 12 12 12 5 4
3 3 3 2 2 2 1 2 2 1 1 2 2 3 3 3 3 3 3 4 4 5 5 6 5 6 6 7 11 7 11 10 7 7 8 10 14 16
Wind_Direction
92 90 84 73 61 53 58 74 119 132 173 197 133 229 179 130 41 98 109 92 91 78 45 6 338 325 317 314 317 323 326 326 324 325 322 322 330 323
95 98 87 83 80 72 82 80 76 112 212 141 190 191 205 192 240 55 135 198 196 139 71 351 331 323 319 315 318 320 319 322 331 324 320 316 318 322
66 81 81 90 87 75 76 88 89 116 207 175 182 229 215 238 144 21 311 290 338 293 291 328 324 321 322 333 343 339 334 326 331 327 321 319 319 317
118 111 114 111 103 103 78 92 131 160 145 147 189 235 200 112 18 9 337 332 346 316 298 310 316 332 319 324 321 323 326 331 330 319 315 323 325 317
117 128 149 135 112 121 122 119 114 115 130 140 160 172 213 105 42 346 289 289 281 280 287 341 294 287 290 302 312 314 318 337 327 324 319 325 325 332
115 121 131 137 134 129 115 117 109 101 94 102 95 120 112 133 166 230 338 330 296 292 299 302 272 299 320 328 20 38 6 331 318 315 348 346 344 336
88 92 104 126 131 131 128 124 123 121 129 125 118 92 246 283 202 348 1 312 301 249 19 346 329 341 322 3 19 351 329 332 324 350 351 334 330 324
104 102 109 109 121 127 126 124 100 112 134 128 128 171 278 63 55 33 351 341 315 9 56 318 359 356 323 337 348 27 352 344 337 322 318 321 320 321
95 96 95 102 96 100 117 106 90 77 77 91 61 49 63 45 92 5 315 327 285 289 56 312 14 348 345 351 340 31 356 338 336 327 318 325 325 329
98 99 115 101 87 98 147 153 151 88 70 70 88 62 79 31 34 344 294 269 286 350 49 29 351 348 338 331 325 13 343 344 329 327 326 319 328 331
72 52 44 93 81 37 22 21 116 113 97 90 75 51 10 329 304 13 313 0 312 355 9 64 356 345 321 351 2 6 354 340 351 339 333 328 338 337
94 80 63 76 48 18 21 303 115 167 138 112 99 348 299 251 271 188 303 2 11 346 34 61 348 356 329 308 345 352 325 334 335 332 330 330 340 313
127 113 91 68 52 62 33 41 51 96 99 75 35 316 291 251 215 247 4 17 326 288 286 59 323 328 262 308 307 294 288 308 301 303 318 342 333 326
109 114 111 97 75 36 49 53 114 106 85 49 316 283 281 3 13 11 326 308 286 265 270 260 244 256 305 298 295 288 289 284 298 289 288 311 319 319
103 120 105 92 38 357 342 279 113 56 91 25 276 242 201 258 288 293 278 278 272 273 275 236 219 251 233 257 286 292 308 298 290 277 301 289 286 288
119 114 117 83 81 344 328 305 111 93 54 255 300 278 254 278 277 265 273 317 310 294 318 318 285 236 254 252 260 282 288 293 297 292 289 285 283 278
135 122 158 185 188 129 107 142 155 215 245 244 215 256 276 280 276 255 262 295 305 312 305 300 290 261 246 251 275 263 274 284 289 298 309 307 293 284
102 169 210 199 267 339 239 226 224 243 241 234 250 260 268 284 295 304 289 266 270 281 279 292 306 322 307 285 266 271 277 274 283 281 289 292 295 291
117 149 192 221 177 267 222 222 226 238 238 234 240 251 261 282 330 319 290 309 303 295 285 292 291 297 314 304 276 273 302 296 291 288 268 270 292 298
166 188 198 160 171 207 254 258 354 8 327 284 275 297 5 316 296 296 309 295 300 297 295 292 294 287 289 295 303 301 277 277 282 286 282 280 275 284
205 213 177 159 197 194 168 199 231 241 261 286 296 278 276 275 293 282 292 317 320 325 312 301 290 309 308 295 293 298 298 290 280 280 288 281 294 274
182 157 164 177 191 183 197 207 233 272 303 308 303 304 297 295 296 308 309 308 295 296 296 298 302 298 295 292 288 293 295 298 298 291 293 270 272 291
158 152 155 169 155 179 206 233 233 247 332 315 306 299 299 303 306 284 283 291 291 293 294 298 300 299 289 286 290 291 293 299 305 313 310 302 287 261